User: anonymous   Login
Location: Ffald-y-Brenin
(52.0833°N, 4.0000°W)
Time: 05:51:05
(UTC+00:00)
Language:

Cosmos 1864 Rocket - Orbit

View from above orbital plane
View from above orbital plane
View from above satellite
View from above satellite

Ground track
Ground track

The orbit data is extracted from the following two-line orbital elements,

1 18161U 87057B   20156.77133282 +.00000118 +00000-0 +10365-3 0  9999
2 18161 082.9328 345.5084 0031726 158.8365 211.8971 13.77049031633090
Epoch (UTC): 04 June 2020 18:30:43
Eccentricity: 0.0031726
inclination: 82.9328°
perigee height: 951 km
apogee height: 998 km
right ascension of ascending node: 345.5084°
argument of perigee: 158.8365°
revolutions per day: 13.77049031
mean anomaly at epoch: 211.8971°
orbit number at epoch: 63309

The dashed part of the orbit path shows where the satellite is in the earth's shadow,  

DLR